Theta_e
306 309 314 317 318 318 318 318 320 320 319 317 316 319 322 322 322 322 322 319 322 325 328 331 332 325 316 317 316 316 315 316 316 314 318 316 315 316 318 323 327 326 324 327 333
310 310 313 315 316 314 314 316 319 320 319 317 316 318 322 322 321 321 321 320 321 324 326 330 332 325 315 315 316 315 316 317 315 312 314 315 316 316 320 325 324 325 324 327 333
310 311 312 314 316 314 314 315 316 319 319 317 316 317 322 322 322 321 321 321 320 323 325 327 328 322 315 315 315 313 316 315 315 315 314 315 314 318 319 322 323 323 324 329 334
310 311 312 314 315 316 316 315 315 318 319 317 316 318 322 322 323 319 320 321 320 323 322 320 319 315 316 315 314 315 312 313 313 314 314 313 315 317 319 319 319 322 323 327 333
308 309 312 315 315 313 313 314 315 314 319 318 316 319 322 320 320 318 318 319 321 323 323 316 316 316 317 317 314 314 314 314 314 313 314 314 314 315 317 318 318 321 323 325 331
304 308 310 313 314 313 311 311 315 317 319 318 316 319 322 318 320 320 319 320 321 323 323 314 315 318 318 317 316 315 317 316 320 315 314 313 312 315 316 318 317 319 322 324 326
305 308 309 311 312 313 312 311 312 314 317 318 316 320 319 319 319 319 319 320 320 322 323 314 315 320 319 317 316 318 320 320 321 313 313 312 313 312 315 317 318 320 323 326 327
305 306 308 309 309 310 310 312 312 314 317 317 317 321 319 318 318 318 318 318 318 318 320 316 316 318 319 317 319 321 319 323 321 314 313 312 315 314 314 317 321 322 324 326 327
305 305 307 308 309 308 309 311 312 313 317 316 319 320 316 317 317 317 318 318 316 315 316 320 316 318 318 320 323 318 325 320 321 316 312 311 314 312 313 316 320 324 325 325 327
305 304 305 308 309 309 309 312 312 314 317 317 318 317 315 317 317 316 315 316 315 316 319 319 319 319 321 322 326 324 323 320 323 318 310 311 310 310 311 318 319 323 325 325 326
305 305 305 305 308 309 309 312 314 314 317 318 316 315 315 316 317 316 315 315 315 316 318 317 321 323 323 322 322 321 323 322 314 312 316 312 311 312 312 313 320 321 324 326 324
306 306 305 306 306 309 310 311 313 316 318 316 315 315 316 316 314 315 315 315 316 319 317 318 322 321 319 322 322 321 324 324 318 311 313 317 319 312 308 309 312 318 321 323 325
305 305 305 305 308 308 309 312 315 314 317 315 314 315 315 316 315 314 315 316 316 317 319 321 320 319 321 322 324 320 323 322 321 311 309 309 312 313 308 309 310 311 316 320 322
303 304 304 304 306 307 307 310 314 315 311 314 314 316 315 316 317 315 315 316 316 317 316 319 318 319 321 322 322 321 315 314 315 316 322 310 314 316 312 308 305 310 312 314 318
302 303 303 302 305 306 306 310 311 314 317 310 312 315 316 315 315 315 316 315 317 317 317 318 318 319 321 321 319 320 314 313 313 314 315 312 313 315 309 309 308 307 311 314 315
302 302 302 301 302 306 306 312 313 312 316 310 310 312 316 316 314 313 313 314 314 316 313 313 313 317 317 316 317 313 314 314 313 316 318 317 316 316 313 311 309 309 312 316 316
300 301 302 302 304 304 309 313 313 315 306 307 310 314 315 316 315 313 313 314 316 318 317 315 315 311 315 314 312 314 318 319 318 317 319 308 313 320 314 306 308 310 313 315 316
301 301 301 303 305 305 308 309 313 309 310 308 312 313 314 314 315 314 315 316 312 311 317 318 319 314 313 314 314 316 318 319 322 317 315 305 316 315 311 317 316 313 312 313 314
298 299 302 302 304 305 304 311 313 311 307 313 312 313 313 311 315 314 314 315 313 309 315 318 315 311 313 312 313 314 318 310 311 298 307 307 307 307 304 304 304 306 309 311 313
298 300 300 301 304 306 302 308 309 308 309 312 314 312 314 311 314 314 314 312 311 308 308 311 314 311 311 312 311 313 312 316 314 319 314 310 307 314 308 306 305 304 306 311 312
300 301 304 302 304 301 305 308 306 307 311 312 312 310 311 312 311 314 314 309 309 307 307 306 309 310 311 314 315 314 316 314 312 309 313 309 310 303 310 309 306 307 309 311 312
301 302 304 302 303 301 306 306 305 308 311 306 306 308 311 310 310 311 312 309 310 308 309 307 307 312 310 307 312 311 314 313 315 313 306 307 308 305 301 303 304 306 308 309 310
301 302 304 304 304 305 307 307 307 311 308 306 306 307 309 310 311 308 308 308 309 310 309 307 307 306 311 310 307 312 311 313 310 308 312 311 318 302 303 304 306 307 308 309 309
300 300 302 302 302 305 306 307 308 309 305 304 305 308 308 309 307 307 308 305 309 310 309 307 306 307 311 309 308 309 312 312 314 315 315 313 316 312 307 305 305 307 308 308 309
299 298 299 303 302 304 305 306 309 308 306 306 307 309 307 308 306 306 305 306 308 309 309 307 306 308 308 307 307 309 310 311 314 315 316 316 314 311 309 308 306 308 310 308 309
298 298 297 299 300 304 305 306 309 307 305 306 307 308 307 308 308 306 305 305 307 306 306 304 304 307 307 306 308 309 308 311 310 313 314 313 311 307 307 307 306 307 308 310 311
298 298 297 299 302 305 305 306 308 307 307 304 307 307 305 305 306 307 308 307 306 309 310 305 305 302 301 306 309 307 307 309 311 310 310 310 312 305 305 305 306 308 307 309 310
Wind_Speed
32 33 33 35 33 32 33 37 36 37 35 30 25 28 26 23 22 24 27 24 23 11 13 19 17 15 9 9 4 5 4 2 4 5 3 11 5 7 6 9 8 8 3 3 23
27 31 32 34 36 33 34 43 34 38 37 31 25 30 29 23 23 30 29 24 21 20 11 18 24 17 8 9 7 4 3 6 4 3 3 11 8 15 7 9 5 10 8 9 26
25 28 32 33 33 33 36 40 34 38 38 32 27 31 31 25 23 29 30 25 20 19 19 18 20 17 8 9 7 5 4 1 5 4 3 7 8 12 13 3 14 18 15 20 28
25 25 28 32 33 30 28 34 37 40 38 34 29 33 33 28 10 17 28 28 24 20 19 17 18 14 6 6 9 6 6 2 4 8 2 2 7 8 16 9 8 15 15 23 30
25 22 25 30 32 30 28 29 36 39 40 36 31 36 37 26 22 3 13 29 26 23 24 20 22 15 5 9 9 4 6 6 8 7 5 4 8 6 17 10 5 15 19 23 30
25 23 24 27 29 31 26 29 40 41 40 37 33 39 39 19 27 25 4 27 30 27 29 22 16 17 10 11 8 10 9 3 2 13 5 2 2 3 7 18 10 14 22 25 30
27 24 23 26 29 31 31 27 37 36 35 36 36 43 30 25 24 36 13 21 27 29 31 26 13 17 13 7 9 7 6 5 5 6 5 2 3 7 7 15 15 18 23 27 30
27 26 24 24 26 26 25 23 30 35 41 40 40 39 12 23 16 25 25 20 21 22 23 27 16 16 5 15 5 5 4 7 8 3 3 1 8 7 13 15 17 19 23 27 30
26 26 24 23 25 24 26 28 29 35 41 38 42 39 10 25 22 20 23 24 23 21 15 26 20 6 7 7 3 7 5 3 3 5 1 4 6 6 13 18 20 22 24 27 29
24 25 26 25 23 25 21 29 28 33 39 39 34 21 17 27 32 26 23 25 24 23 18 13 7 3 3 7 15 5 6 4 7 1 3 5 9 11 10 18 23 24 27 28 32
23 22 23 26 23 24 20 27 18 23 47 21 32 11 26 29 33 27 30 25 24 23 6 5 5 11 17 11 2 9 3 9 4 4 2 6 10 13 16 15 19 22 29 31 33
23 21 17 20 23 21 21 34 39 8 35 30 27 25 33 42 16 33 32 15 16 8 11 4 10 6 10 9 6 11 8 4 3 3 4 12 22 14 10 12 26 29 29 34 31
25 22 20 15 20 22 27 40 32 26 8 17 28 28 39 37 19 31 32 15 14 6 11 9 3 13 12 12 12 5 12 8 3 3 3 3 15 17 8 20 20 24 30 29 34
26 26 20 17 17 25 29 28 25 33 4 9 14 13 31 26 8 35 29 15 4 10 6 2 10 16 14 14 15 7 4 6 7 4 4 4 6 11 9 13 11 30 28 33 34
27 25 25 21 13 17 31 22 32 27 9 13 8 32 29 27 30 21 29 9 11 9 6 7 10 15 14 13 15 4 12 6 5 6 2 5 4 7 7 10 11 22 34 35 34
27 24 23 24 26 18 22 21 31 6 6 9 11 13 18 25 13 19 11 10 9 6 5 3 2 9 7 6 13 15 13 11 6 2 5 8 10 7 10 14 8 17 36 40 39
24 22 22 23 23 24 19 30 6 6 6 8 10 18 22 17 10 16 10 12 7 10 9 4 4 1 8 10 10 4 13 3 2 3 6 3 7 20 9 7 9 15 31 38 41
21 20 21 24 23 21 26 3 5 5 6 4 17 23 8 20 14 13 17 12 4 7 5 8 7 8 4 6 7 9 1 5 7 5 2 1 10 6 15 32 32 29 29 26 33
19 18 18 24 24 19 9 5 4 9 8 15 21 19 11 6 8 13 16 18 6 6 7 10 4 1 2 5 12 4 4 1 4 2 2 6 8 9 11 10 12 24 24 31 30
15 12 16 16 20 20 1 5 4 7 13 21 19 10 16 12 15 19 18 15 8 6 4 7 5 3 5 8 5 3 6 2 2 5 4 5 5 11 3 7 10 11 28 31 28
13 8 10 15 17 6 3 4 3 11 30 22 9 9 12 19 8 22 24 3 7 9 5 6 5 1 7 8 10 5 4 2 2 3 4 1 6 7 13 14 9 15 27 27 33
13 4 11 24 4 2 2 6 8 19 28 3 5 6 22 19 12 8 20 7 23 16 10 5 6 5 3 4 8 5 8 8 4 6 2 2 9 3 7 6 4 11 13 15 19
11 5 9 27 7 3 4 6 13 23 14 8 6 4 20 14 9 6 8 7 23 21 16 8 3 4 2 4 2 7 7 10 1 2 6 4 11 2 3 5 6 10 10 14 19
6 3 2 6 3 6 5 5 9 29 4 5 8 21 16 13 5 9 8 4 25 20 14 9 4 6 10 5 9 7 15 15 15 4 8 13 24 12 10 6 8 9 15 14 12
3 1 3 4 3 5 7 5 17 8 2 13 8 22 12 8 5 6 6 6 8 20 8 3 4 3 3 6 5 6 10 19 19 27 10 29 20 18 16 12 7 13 13 15 13
4 2 1 2 2 11 10 6 23 11 9 7 16 26 13 15 10 14 11 6 7 4 4 1 2 4 2 4 6 4 13 20 24 23 23 21 25 3 8 18 21 9 12 15 19
5 5 2 1 2 4 7 4 20 9 4 7 21 15 7 9 17 25 26 20 20 16 16 8 6 4 4 2 5 6 16 20 20 20 24 16 33 6 5 13 20 21 14 19 21
Wind_Direction
241 232 228 224 225 225 223 224 217 223 228 228 226 219 223 225 216 221 225 233 231 236 217 210 207 204 182 153 188 154 77 188 220 168 206 160 149 157 168 149 167 192 189 188 168
238 233 226 224 224 229 230 226 227 220 226 227 224 216 217 222 219 228 229 227 230 227 230 204 202 191 169 152 168 133 138 204 215 211 206 180 175 161 157 156 200 195 201 172 173
235 231 227 222 223 228 228 222 221 223 226 224 222 213 213 212 222 236 225 224 225 226 215 203 206 182 164 158 152 154 167 271 0 274 287 187 185 175 146 206 208 206 189 171 178
233 229 226 221 220 216 216 221 220 223 223 221 219 210 211 205 212 252 237 222 216 216 205 199 194 178 150 140 160 133 92 44 347 343 305 216 180 190 188 202 226 223 206 179 185
228 228 221 217 219 216 221 227 222 231 220 217 214 207 206 190 203 201 224 205 208 207 202 194 191 177 164 163 145 139 161 103 36 11 287 251 223 206 218 200 211 200 199 192 194
227 226 220 217 216 222 229 224 220 214 217 212 207 207 203 204 206 216 284 193 197 201 197 195 199 186 181 181 194 163 148 111 358 344 308 208 252 220 235 209 203 196 201 199 199
224 223 221 214 218 221 225 227 225 222 218 208 200 205 200 205 212 213 233 191 192 198 194 192 196 186 157 124 138 158 131 58 251 8 332 290 270 231 247 199 199 195 202 202 203
217 217 218 216 218 219 224 231 225 213 222 198 198 190 200 189 188 208 212 193 191 197 202 193 189 194 147 126 87 104 76 178 231 336 12 188 263 263 220 201 200 198 202 203 206
213 214 215 218 219 221 228 226 223 216 213 192 191 197 199 175 178 184 198 191 185 183 183 198 188 162 136 130 118 18 158 123 313 183 218 176 277 279 212 207 210 207 204 204 208
212 215 216 220 220 219 228 218 221 210 201 188 189 174 164 178 174 170 170 179 168 166 140 153 155 142 206 179 200 148 175 183 193 194 167 246 267 280 262 216 220 213 213 208 211
212 216 222 224 219 219 223 208 190 218 190 186 162 191 165 169 171 167 166 167 159 161 163 161 173 197 204 191 188 162 169 195 165 140 117 264 269 269 261 238 231 226 224 218 216
208 211 216 218 216 216 218 210 211 227 180 185 170 181 159 160 138 155 161 153 163 159 119 124 217 169 161 177 140 161 179 195 353 77 194 256 263 271 233 235 233 230 228 228 224
213 214 213 213 208 214 218 215 197 205 198 162 169 164 162 164 152 156 162 158 162 130 166 185 157 150 161 178 184 173 193 178 180 102 243 321 269 256 240 238 239 238 239 236 231
212 215 213 213 216 220 223 221 198 178 144 149 163 176 157 161 134 161 160 143 158 161 160 143 152 158 172 184 188 187 103 108 109 107 221 180 283 235 230 240 214 231 231 234 235
208 213 215 216 211 221 226 224 207 177 192 152 156 162 166 163 135 169 164 130 151 145 154 173 162 155 176 186 175 160 127 97 101 123 339 207 248 270 170 246 237 227 230 233 236
207 217 217 218 216 224 208 201 179 163 175 154 161 171 152 146 145 135 146 125 124 110 58 109 154 162 165 151 169 129 96 76 68 115 246 196 218 232 216 224 245 239 230 232 236
212 212 213 211 221 214 200 186 191 206 139 160 167 164 141 149 129 152 149 143 159 152 163 141 157 283 148 98 130 149 147 113 161 183 252 257 196 243 250 209 221 229 237 233 233
204 212 219 213 203 204 216 143 185 126 164 167 155 142 126 143 152 146 154 156 190 106 139 154 190 173 173 144 153 147 206 152 185 194 208 77 232 252 228 235 239 248 248 242 237
210 212 222 215 207 219 219 217 169 154 149 145 135 141 138 126 139 151 176 186 159 174 140 169 164 280 79 138 145 169 172 91 86 66 96 206 283 278 235 248 240 238 243 237 239
193 195 227 218 201 200 138 271 205 148 132 150 144 160 155 156 151 173 174 190 165 161 191 192 117 229 165 96 38 143 152 114 178 192 245 263 265 246 333 261 240 239 233 235 239
158 153 159 177 187 113 194 245 231 178 149 162 159 143 167 158 164 177 177 156 132 149 91 146 106 116 140 205 166 139 163 104 102 201 207 289 259 225 211 213 220 231 239 248 246
157 141 152 169 134 176 208 177 211 181 166 143 102 68 166 147 158 154 180 160 159 150 148 203 112 138 199 182 159 139 179 177 171 197 224 166 262 277 260 267 264 275 285 287 282
160 130 142 171 173 195 175 196 208 172 162 153 142 143 156 154 132 128 150 195 163 172 161 177 147 94 43 332 129 204 182 202 183 70 206 163 262 136 282 301 287 279 287 272 269
139 119 118 170 152 145 198 209 177 171 155 114 113 125 129 156 81 154 147 148 173 175 185 132 144 154 188 178 140 189 195 196 206 184 214 223 251 279 294 273 294 299 303 293 277
116 151 159 169 188 170 178 214 170 167 236 145 123 154 143 145 99 135 133 97 139 182 176 113 134 121 100 133 122 154 174 190 202 223 199 243 246 242 252 276 277 299 310 301 307
114 136 100 101 153 191 190 210 178 161 161 202 158 164 154 157 169 167 133 116 161 132 125 148 126 118 84 147 152 170 205 198 211 225 238 252 278 267 265 282 296 263 282 294 308
122 132 137 313 217 176 193 194 196 166 8 143 148 137 102 150 136 147 152 143 151 167 188 150 141 106 204 130 94 312 204 204 213 218 219 223 243 149 249 254 266 288 262 283 293